QPF
0.00 0.01 0.01 0.01 0.01 0.00 0.00 0.01 0.01 0.01 0.01 0.01 0.01 0.02 0.02 0.02 0.01 0.01 0.01 0.03 0.03 0.03 0.02 0.01 0.01 0.01 0.02 0.02 0.02 0.02 0.02 0.02 0.02 0.02 0.02 0.02 0.02 0.02
0.01 0.01 0.01 0.01 0.01 0.00 0.01 0.01 0.01 0.01 0.01 0.00 0.00 0.01 0.01 0.02 0.02 0.01 0.01 0.02 0.03 0.03 0.02 0.01 0.01 0.01 0.01 0.01 0.01 0.01 0.01 0.02 0.02 0.02 0.02 0.02 0.02 0.02
0.01 0.01 0.01 0.01 0.01 0.01 0.01 0.01 0.02 0.01 0.01 0.01 0.01 0.02 0.01 0.01 0.01 0.01 0.01 0.01 0.01 0.02 0.03 0.02 0.01 0.01 0.01 0.01 0.01 0.01 0.01 0.01 0.01 0.01 0.01 0.01 0.01 0.02
0.01 0.01 0.01 0.01 0.01 0.01 0.01 0.02 0.03 0.02 0.01 0.01 0.01 0.02 0.02 0.01 0.01 0.01 0.01 0.01 0.01 0.01 0.02 0.01 0.01 0.01 0.00 0.01 0.01 0.01 0.01 0.01 0.01 0.01 0.01 0.01 0.01 0.01
0.01 0.01 0.01 0.01 0.01 0.01 0.01 0.02 0.03 0.02 0.02 0.02 0.00 0.01 0.02 0.02 0.02 0.02 0.02 0.02 0.02 0.01 0.01 0.01 0.01 0.01 0.00 0.01 0.01 0.01 0.01 0.01 0.02 0.01 0.01 0.01 0.01 0.01
0.00 0.01 0.01 0.01 0.01 0.00 0.01 0.01 0.01 0.01 0.01 0.01 0.01 0.01 0.01 0.02 0.02 0.02 0.02 0.02 0.02 0.01 0.01 0.01 0.02 0.01 0.01 0.00 0.01 0.01 0.01 0.02 0.02 0.02 0.01 0.01 0.01 0.01
0.00 0.00 0.00 0.01 0.01 0.02 0.02 0.01 0.01 0.01 0.01 0.01 0.00 0.01 0.01 0.01 0.01 0.02 0.02 0.02 0.02 0.01 0.01 0.01 0.01 0.01 0.01 0.01 0.01 0.01 0.01 0.01 0.01 0.02 0.01 0.01 0.01 0.01
0.00 0.00 0.00 0.01 0.01 0.02 0.02 0.02 0.02 0.01 0.01 0.01 0.00 0.01 0.01 0.01 0.01 0.02 0.02 0.02 0.01 0.01 0.01 0.01 0.02 0.01 0.00 0.01 0.01 0.01 0.01 0.01 0.02 0.02 0.02 0.01 0.01 0.01
0.00 0.01 0.00 0.00 0.00 0.01 0.01 0.01 0.01 0.01 0.01 0.01 0.00 0.00 0.01 0.01 0.02 0.03 0.03 0.03 0.03 0.02 0.02 0.01 0.02 0.02 0.01 0.01 0.01 0.01 0.01 0.01 0.02 0.03 0.02 0.02 0.01 0.01
0.00 0.00 0.00 0.00 0.00 0.01 0.00 0.00 0.00 0.00 0.00 0.01 0.01 0.01 0.01 0.01 0.01 0.01 0.02 0.01 0.01 0.01 0.01 0.01 0.01 0.02 0.01 0.01 0.02 0.01 0.01 0.01 0.02 0.04 0.05 0.04 0.02 0.01
0.01 0.01 0.01 0.01 0.01 0.01 0.01 0.00 0.00 0.00 0.01 0.01 0.01 0.01 0.01 0.01 0.01 0.01 0.01 0.01 0.01 0.01 0.01 0.02 0.02 0.02 0.03 0.02 0.02 0.02 0.01 0.01 0.01 0.01 0.03 0.04 0.03 0.02
0.01 0.01 0.01 0.01 0.01 0.02 0.02 0.01 0.01 0.01 0.01 0.01 0.01 0.01 0.01 0.01 0.01 0.01 0.01 0.01 0.01 0.01 0.01 0.02 0.02 0.03 0.05 0.03 0.03 0.01 0.01 0.01 0.01 0.01 0.01 0.02 0.03 0.03
0.01 0.01 0.01 0.01 0.01 0.02 0.02 0.02 0.02 0.02 0.01 0.01 0.01 0.01 0.02 0.02 0.03 0.02 0.02 0.01 0.02 0.01 0.01 0.02 0.02 0.03 0.06 0.05 0.03 0.01 0.01 0.01 0.01 0.01 0.01 0.01 0.02 0.02
0.01 0.01 0.01 0.01 0.02 0.01 0.01 0.01 0.01 0.02 0.01 0.02 0.02 0.02 0.01 0.01 0.02 0.03 0.03 0.02 0.01 0.01 0.01 0.01 0.02 0.02 0.04 0.05 0.02 0.01 0.01 0.01 0.01 0.01 0.01 0.01 0.01 0.01
0.01 0.01 0.02 0.02 0.01 0.01 0.01 0.01 0.01 0.01 0.01 0.01 0.01 0.01 0.02 0.02 0.02 0.02 0.02 0.01 0.01 0.01 0.01 0.01 0.01 0.02 0.03 0.03 0.02 0.01 0.01 0.01 0.01 0.01 0.01 0.01 0.01 0.01
0.02 0.02 0.01 0.01 0.01 0.01 0.01 0.01 0.01 0.00 0.00 0.00 0.01 0.01 0.01 0.01 0.01 0.01 0.00 0.00 0.01 0.01 0.01 0.00 0.01 0.01 0.02 0.02 0.02 0.01 0.01 0.01 0.02 0.02 0.02 0.02 0.01 0.02
0.02 0.02 0.01 0.01 0.01 0.01 0.01 0.01 0.01 0.01 0.01 0.00 0.00 0.01 0.01 0.01 0.01 0.01 0.01 0.01 0.02 0.02 0.01 0.01 0.01 0.01 0.02 0.02 0.02 0.02 0.02 0.01 0.01 0.02 0.02 0.02 0.01 0.02
0.02 0.01 0.02 0.02 0.02 0.02 0.02 0.02 0.01 0.01 0.01 0.01 0.01 0.01 0.01 0.01 0.01 0.01 0.01 0.01 0.01 0.01 0.01 0.01 0.01 0.01 0.01 0.01 0.01 0.01 0.01 0.01 0.01 0.02 0.01 0.01 0.01 0.02
0.02 0.02 0.02 0.02 0.02 0.02 0.02 0.03 0.03 0.04 0.04 0.05 0.04 0.03 0.02 0.02 0.02 0.02 0.02 0.01 0.01 0.01 0.01 0.01 0.02 0.03 0.02 0.02 0.01 0.01 0.01 0.01 0.01 0.01 0.01 0.01 0.01 0.01
0.04 0.02 0.01 0.01 0.01 0.02 0.02 0.02 0.02 0.02 0.02 0.02 0.03 0.03 0.03 0.03 0.03 0.02 0.02 0.02 0.01 0.01 0.01 0.02 0.02 0.02 0.02 0.02 0.02 0.01 0.01 0.02 0.02 0.02 0.01 0.01 0.01 0.01
0.02 0.03 0.03 0.02 0.01 0.01 0.01 0.01 0.01 0.01 0.02 0.02 0.02 0.01 0.01 0.01 0.01 0.02 0.02 0.02 0.01 0.01 0.01 0.01 0.01 0.01 0.01 0.02 0.02 0.02 0.01 0.01 0.02 0.02 0.03 0.03 0.02 0.02
0.02 0.02 0.02 0.02 0.01 0.01 0.01 0.01 0.01 0.01 0.01 0.01 0.01 0.01 0.01 0.01 0.01 0.01 0.01 0.01 0.01 0.01 0.01 0.01 0.01 0.01 0.02 0.02 0.02 0.02 0.01 0.01 0.02 0.03 0.03 0.04 0.04 0.04
0.02 0.02 0.02 0.02 0.02 0.01 0.01 0.01 0.01 0.01 0.01 0.01 0.01 0.01 0.01 0.01 0.02 0.02 0.01 0.01 0.01 0.01 0.01 0.01 0.02 0.02 0.02 0.02 0.02 0.02 0.02 0.01 0.02 0.02 0.02 0.03 0.03 0.04
MSLP
1017.64 1017.96 1018.31 1018.68 1019.03 1019.33 1019.59 1019.78 1019.93 1020.06 1020.19 1020.33 1020.50 1020.69 1020.88 1021.05 1021.20 1021.30 1021.34 1021.35 1021.32 1021.28 1021.26 1021.27 1021.32 1021.41 1021.53 1021.65 1021.77 1021.87 1021.94 1021.97 1021.97 1021.96 1021.92 1021.87 1021.81 1021.75
1017.51 1017.81 1018.13 1018.47 1018.80 1019.10 1019.35 1019.56 1019.74 1019.91 1020.08 1020.26 1020.46 1020.67 1020.88 1021.06 1021.21 1021.30 1021.33 1021.33 1021.30 1021.26 1021.25 1021.27 1021.34 1021.45 1021.58 1021.73 1021.86 1021.97 1022.04 1022.08 1022.08 1022.05 1022.01 1021.95 1021.88 1021.80
1017.34 1017.62 1017.93 1018.24 1018.56 1018.85 1019.11 1019.34 1019.56 1019.77 1019.98 1020.21 1020.45 1020.69 1020.92 1021.11 1021.25 1021.33 1021.36 1021.34 1021.30 1021.25 1021.23 1021.25 1021.30 1021.41 1021.53 1021.68 1021.81 1021.92 1022.00 1022.04 1022.04 1022.02 1021.98 1021.93 1021.86 1021.79
1017.08 1017.35 1017.65 1017.96 1018.26 1018.55 1018.83 1019.09 1019.35 1019.61 1019.88 1020.16 1020.44 1020.71 1020.96 1021.16 1021.30 1021.38 1021.40 1021.36 1021.30 1021.24 1021.20 1021.19 1021.22 1021.29 1021.40 1021.51 1021.63 1021.72 1021.79 1021.83 1021.85 1021.84 1021.82 1021.78 1021.74 1021.68
1016.70 1016.97 1017.27 1017.57 1017.88 1018.18 1018.49 1018.79 1019.09 1019.41 1019.73 1020.05 1020.38 1020.69 1020.96 1021.17 1021.32 1021.40 1021.41 1021.37 1021.29 1021.21 1021.14 1021.10 1021.09 1021.12 1021.17 1021.25 1021.32 1021.38 1021.43 1021.47 1021.49 1021.49 1021.50 1021.49 1021.48 1021.45
1016.20 1016.47 1016.76 1017.07 1017.39 1017.71 1018.05 1018.39 1018.74 1019.11 1019.48 1019.85 1020.22 1020.56 1020.85 1021.08 1021.24 1021.33 1021.35 1021.31 1021.23 1021.13 1021.04 1020.97 1020.92 1020.89 1020.89 1020.90 1020.92 1020.94 1020.95 1020.97 1020.98 1021.00 1021.02 1021.04 1021.06 1021.06
1015.60 1015.87 1016.15 1016.46 1016.79 1017.14 1017.50 1017.89 1018.28 1018.69 1019.11 1019.52 1019.92 1020.28 1020.60 1020.85 1021.03 1021.14 1021.17 1021.15 1021.09 1021.00 1020.90 1020.81 1020.72 1020.65 1020.59 1020.53 1020.48 1020.44 1020.40 1020.38 1020.37 1020.39 1020.42 1020.46 1020.51 1020.54
1014.95 1015.20 1015.48 1015.78 1016.12 1016.49 1016.88 1017.29 1017.72 1018.17 1018.61 1019.05 1019.47 1019.86 1020.19 1020.47 1020.68 1020.81 1020.89 1020.91 1020.88 1020.82 1020.73 1020.64 1020.53 1020.42 1020.31 1020.19 1020.07 1019.96 1019.86 1019.79 1019.75 1019.74 1019.76 1019.81 1019.87 1019.92
1014.29 1014.53 1014.79 1015.09 1015.43 1015.81 1016.22 1016.66 1017.11 1017.58 1018.04 1018.49 1018.93 1019.32 1019.67 1019.97 1020.21 1020.39 1020.51 1020.59 1020.61 1020.60 1020.56 1020.49 1020.38 1020.26 1020.11 1019.93 1019.75 1019.58 1019.41 1019.28 1019.19 1019.14 1019.14 1019.17 1019.23 1019.29
1013.70 1013.91 1014.17 1014.47 1014.81 1015.20 1015.62 1016.06 1016.52 1016.99 1017.46 1017.91 1018.34 1018.74 1019.10 1019.42 1019.69 1019.92 1020.10 1020.24 1020.34 1020.40 1020.41 1020.38 1020.30 1020.18 1020.01 1019.81 1019.58 1019.35 1019.13 1018.93 1018.78 1018.69 1018.64 1018.64 1018.68 1018.72
1013.21 1013.42 1013.68 1013.98 1014.33 1014.71 1015.14 1015.58 1016.04 1016.50 1016.96 1017.40 1017.82 1018.21 1018.58 1018.91 1019.21 1019.48 1019.72 1019.92 1020.09 1020.22 1020.30 1020.33 1020.29 1020.19 1020.03 1019.82 1019.57 1019.29 1019.02 1018.77 1018.57 1018.41 1018.32 1018.28 1018.27 1018.28
1012.86 1013.09 1013.36 1013.68 1014.03 1014.42 1014.84 1015.28 1015.73 1016.17 1016.61 1017.03 1017.43 1017.80 1018.16 1018.49 1018.81 1019.11 1019.39 1019.65 1019.88 1020.07 1020.21 1020.30 1020.31 1020.25 1020.11 1019.91 1019.65 1019.36 1019.06 1018.77 1018.52 1018.32 1018.17 1018.07 1018.01 1017.97
1012.65 1012.93 1013.24 1013.58 1013.95 1014.34 1014.76 1015.18 1015.60 1016.02 1016.43 1016.82 1017.19 1017.54 1017.88 1018.20 1018.52 1018.83 1019.13 1019.41 1019.68 1019.92 1020.11 1020.24 1020.30 1020.28 1020.17 1020.00 1019.75 1019.46 1019.15 1018.85 1018.57 1018.32 1018.12 1017.97 1017.85 1017.75
1012.59 1012.93 1013.29 1013.66 1014.04 1014.44 1014.84 1015.25 1015.64 1016.03 1016.40 1016.75 1017.09 1017.41 1017.71 1018.01 1018.31 1018.61 1018.90 1019.19 1019.46 1019.71 1019.92 1020.08 1020.17 1020.18 1020.11 1019.97 1019.75 1019.49 1019.19 1018.89 1018.59 1018.32 1018.08 1017.88 1017.70 1017.54
1012.62 1013.04 1013.45 1013.86 1014.26 1014.65 1015.03 1015.41 1015.77 1016.12 1016.45 1016.76 1017.05 1017.34 1017.61 1017.87 1018.13 1018.39 1018.65 1018.91 1019.16 1019.39 1019.59 1019.75 1019.85 1019.88 1019.84 1019.73 1019.56 1019.33 1019.06 1018.77 1018.48 1018.20 1017.94 1017.69 1017.46 1017.24
1012.72 1013.20 1013.66 1014.09 1014.50 1014.88 1015.23 1015.57 1015.89 1016.19 1016.48 1016.75 1017.00 1017.25 1017.47 1017.69 1017.91 1018.11 1018.32 1018.52 1018.72 1018.90 1019.07 1019.20 1019.29 1019.33 1019.31 1019.23 1019.09 1018.90 1018.67 1018.42 1018.15 1017.87 1017.59 1017.32 1017.05 1016.77
1012.80 1013.34 1013.83 1014.27 1014.66 1015.01 1015.33 1015.62 1015.89 1016.15 1016.40 1016.63 1016.85 1017.05 1017.24 1017.41 1017.57 1017.72 1017.86 1018.00 1018.13 1018.25 1018.36 1018.45 1018.51 1018.54 1018.52 1018.46 1018.36 1018.21 1018.02 1017.79 1017.55 1017.28 1017.01 1016.71 1016.41 1016.10
1012.82 1013.38 1013.88 1014.30 1014.67 1014.98 1015.25 1015.49 1015.72 1015.93 1016.13 1016.33 1016.52 1016.69 1016.85 1016.98 1017.10 1017.19 1017.27 1017.33 1017.39 1017.44 1017.49 1017.53 1017.55 1017.56 1017.54 1017.49 1017.41 1017.28 1017.13 1016.93 1016.71 1016.46 1016.19 1015.89 1015.57 1015.24
1012.72 1013.28 1013.75 1014.15 1014.47 1014.73 1014.95 1015.15 1015.33 1015.50 1015.68 1015.85 1016.02 1016.18 1016.31 1016.41 1016.49 1016.54 1016.56 1016.57 1016.56 1016.55 1016.54 1016.53 1016.52 1016.50 1016.47 1016.42 1016.34 1016.24 1016.10 1015.93 1015.72 1015.48 1015.21 1014.92 1014.60 1014.26
1012.49 1013.02 1013.45 1013.80 1014.07 1014.29 1014.46 1014.61 1014.76 1014.91 1015.07 1015.23 1015.39 1015.53 1015.65 1015.74 1015.80 1015.82 1015.80 1015.77 1015.72 1015.66 1015.60 1015.55 1015.50 1015.46 1015.41 1015.36 1015.28 1015.17 1015.04 1014.87 1014.67 1014.43 1014.17 1013.87 1013.56 1013.23
1012.14 1012.62 1013.00 1013.30 1013.52 1013.69 1013.83 1013.96 1014.08 1014.22 1014.37 1014.53 1014.69 1014.83 1014.95 1015.04 1015.08 1015.08 1015.05 1014.99 1014.91 1014.82 1014.74 1014.66 1014.59 1014.53 1014.46 1014.38 1014.29 1014.17 1014.02 1013.85 1013.63 1013.39 1013.12 1012.83 1012.53 1012.22
1011.71 1012.13 1012.46 1012.71 1012.90 1013.04 1013.16 1013.27 1013.39 1013.53 1013.68 1013.85 1014.01 1014.16 1014.27 1014.35 1014.39 1014.39 1014.35 1014.28 1014.19 1014.09 1014.00 1013.91 1013.82 1013.74 1013.65 1013.55 1013.43 1013.28 1013.11 1012.90 1012.66 1012.41 1012.13 1011.85 1011.56 1011.28
1011.25 1011.62 1011.91 1012.13 1012.29 1012.42 1012.54 1012.65 1012.78 1012.93 1013.09 1013.26 1013.42 1013.57 1013.68 1013.75 1013.78 1013.77 1013.73 1013.65 1013.56 1013.46 1013.36 1013.27 1013.17 1013.07 1012.96 1012.83 1012.68 1012.49 1012.28 1012.03 1011.76 1011.48 1011.20 1010.92 1010.66 1010.41
Thickness
5655 5654 5652 5650 5649 5648 5646 5643 5637 5631 5631 5634 5636 5639 5639 5640 5641 5641 5642 5642 5643 5643 5643 5643 5643 5643 5642 5643 5643 5644 5645 5645 5645 5645 5646 5647 5647 5648
5650 5648 5646 5645 5644 5642 5641 5639 5636 5632 5627 5628 5630 5632 5633 5634 5634 5635 5635 5636 5636 5636 5637 5637 5637 5637 5637 5637 5637 5638 5639 5639 5639 5640 5641 5641 5642 5643
5644 5642 5641 5639 5637 5636 5635 5633 5631 5629 5624 5623 5624 5625 5626 5626 5627 5628 5629 5630 5630 5630 5630 5630 5630 5630 5631 5631 5632 5632 5633 5633 5634 5635 5635 5636 5637 5637
5639 5637 5635 5634 5631 5629 5628 5626 5625 5624 5621 5617 5617 5618 5618 5620 5620 5621 5622 5623 5623 5624 5623 5623 5624 5624 5625 5625 5626 5626 5627 5627 5628 5629 5630 5631 5631 5632
5634 5632 5630 5628 5625 5623 5622 5620 5618 5618 5616 5613 5611 5610 5611 5612 5612 5613 5615 5615 5616 5617 5617 5617 5617 5618 5618 5619 5620 5621 5621 5622 5623 5623 5624 5625 5625 5626
5630 5628 5626 5624 5621 5619 5617 5614 5612 5610 5608 5606 5604 5603 5603 5604 5604 5604 5605 5606 5608 5610 5611 5611 5611 5611 5612 5613 5614 5615 5616 5616 5617 5618 5619 5619 5620 5620
5625 5623 5621 5620 5619 5616 5614 5610 5607 5604 5601 5599 5597 5595 5595 5595 5595 5596 5596 5598 5600 5602 5603 5604 5604 5605 5606 5607 5608 5609 5610 5611 5612 5613 5613 5614 5614 5615
5619 5617 5616 5615 5613 5611 5609 5607 5604 5600 5595 5593 5590 5589 5589 5590 5590 5590 5589 5589 5590 5594 5594 5596 5598 5598 5600 5601 5602 5603 5604 5605 5605 5606 5607 5607 5608 5609
5614 5612 5611 5609 5606 5604 5602 5600 5598 5596 5595 5591 5587 5586 5586 5586 5585 5584 5583 5583 5583 5586 5587 5588 5590 5591 5594 5595 5596 5597 5597 5598 5598 5599 5600 5601 5601 5602
5609 5607 5604 5602 5600 5598 5595 5592 5590 5589 5588 5587 5586 5585 5584 5583 5582 5581 5579 5578 5579 5580 5580 5579 5583 5584 5588 5588 5589 5589 5590 5590 5591 5591 5592 5593 5594 5595
5601 5599 5598 5595 5595 5593 5589 5586 5583 5582 5583 5582 5582 5581 5580 5579 5577 5574 5572 5570 5570 5572 5573 5573 5575 5577 5580 5581 5582 5582 5582 5582 5583 5584 5584 5585 5586 5587
5593 5592 5591 5590 5589 5586 5583 5580 5577 5576 5575 5575 5574 5573 5573 5572 5571 5569 5566 5563 5562 5563 5566 5566 5567 5567 5569 5573 5573 5574 5574 5575 5575 5576 5577 5577 5578 5578
5585 5583 5583 5583 5581 5579 5577 5574 5573 5571 5569 5567 5566 5565 5564 5564 5563 5562 5561 5559 5557 5556 5559 5558 5558 5558 5558 5561 5564 5565 5565 5566 5567 5568 5568 5569 5570 5569
5579 5577 5576 5575 5573 5571 5568 5567 5567 5564 5561 5559 5557 5556 5556 5556 5555 5555 5554 5553 5553 5553 5552 5552 5550 5550 5549 5550 5552 5555 5556 5557 5558 5559 5560 5561 5561 5561
5572 5571 5569 5567 5565 5562 5561 5560 5558 5555 5553 5551 5550 5549 5549 5549 5549 5548 5547 5546 5546 5546 5546 5545 5544 5544 5543 5542 5544 5545 5547 5549 5550 5551 5551 5551 5552 5553
5563 5562 5560 5558 5555 5553 5552 5550 5549 5547 5546 5544 5543 5543 5542 5542 5541 5540 5539 5538 5538 5538 5539 5538 5538 5538 5537 5537 5536 5537 5538 5539 5541 5541 5542 5542 5543 5544
5555 5552 5549 5547 5545 5543 5541 5540 5540 5538 5537 5536 5536 5535 5534 5533 5533 5532 5531 5530 5529 5530 5530 5531 5531 5531 5532 5531 5530 5531 5531 5532 5532 5533 5533 5534 5535 5536
5546 5543 5541 5538 5536 5535 5533 5531 5530 5530 5529 5529 5529 5528 5527 5526 5525 5524 5523 5521 5521 5521 5522 5522 5522 5522 5523 5524 5526 5525 5525 5524 5524 5524 5524 5524 5527 5528
5537 5534 5533 5531 5529 5527 5525 5524 5523 5522 5522 5521 5520 5519 5519 5518 5517 5516 5515 5513 5513 5513 5514 5513 5513 5512 5513 5516 5519 5519 5517 5517 5516 5516 5516 5516 5518 5521
5529 5527 5525 5523 5521 5520 5518 5516 5515 5515 5514 5513 5512 5511 5511 5510 5509 5508 5507 5506 5506 5506 5506 5505 5505 5505 5505 5506 5509 5510 5510 5508 5508 5508 5509 5509 5509 5512
5522 5520 5518 5516 5514 5513 5511 5510 5509 5508 5506 5505 5504 5503 5502 5501 5501 5500 5499 5499 5498 5498 5498 5499 5499 5499 5498 5498 5499 5502 5502 5502 5501 5500 5500 5499 5500 5501
5515 5513 5511 5509 5507 5506 5504 5502 5501 5500 5499 5498 5496 5495 5494 5493 5493 5492 5492 5491 5490 5490 5491 5492 5492 5492 5491 5490 5491 5493 5494 5493 5492 5491 5491 5491 5490 5491
5509 5506 5504 5502 5501 5499 5497 5495 5494 5494 5492 5491 5489 5488 5487 5486 5485 5485 5484 5484 5483 5483 5483 5483 5483 5483 5484 5483 5483 5483 5483 5483 5483 5482 5483 5483 5483 5483